User: anonymous   Login
Location: Chervonnoye
(48.6000°N, 34.4000°E)
Time: 16:40:57
(UTC+00:00)
Language:

VELOX 1 - Orbit

View from above orbital plane
View from above orbital plane
View from above satellite
View from above satellite

Ground track
Ground track

The orbit data is extracted from the following two-line orbital elements,

1 40057U 14034E   22337.25772641  .00002124  00000-0  28877-3 0  9993
2 40057  98.3696 156.7243 0011147 145.7924 214.4007 14.79894435454435
Epoch (UTC): 03 December 2022 06:11:07
Eccentricity: 0.0011147
inclination: 98.3696°
perigee height: 622 km
apogee height: 637 km
right ascension of ascending node: 156.7243°
argument of perigee: 145.7924°
revolutions per day: 14.79894435
mean anomaly at epoch: 214.4007°
orbit number at epoch: 45443

The dashed part of the orbit path shows where the satellite is in the earth's shadow,  

DLR